TimePST,TemperatureF,Dew PointF,Humidity,Sea Level PressureIn,VisibilityMPH,Wind Direction,Wind SpeedMPH,Gust SpeedMPH,PrecipitationIn,Events,Conditions,WindDirDegrees,DateUTC
12:55 AM,30.9,19.0,61,30.28,10.0,NNW,5.8,-,N/A,,Clear,340,2014-01-04 08:55:00
1:55 AM,30.9,19.9,64,30.31,10.0,NNW,8.1,-,N/A,,Clear,330,2014-01-04 09:55:00
2:55 AM,30.9,19.9,64,30.33,10.0,Calm,Calm,-,N/A,,Clear,0,2014-01-04 10:55:00
3:55 AM,27.0,19.0,72,30.34,10.0,West,8.1,-,N/A,,Clear,270,2014-01-04 11:55:00
4:55 AM,26.1,19.0,75,30.36,10.0,WSW,5.8,-,N/A,,Clear,240,2014-01-04 12:55:00
5:55 AM,26.1,19.0,75,30.38,10.0,North,5.8,-,N/A,,Clear,350,2014-01-04 13:55:00
6:55 AM,26.1,19.0,75,30.40,10.0,Calm,Calm,-,N/A,,Clear,0,2014-01-04 14:55:00
7:55 AM,21.9,17.1,82,30.42,10.0,East,3.5,-,N/A,,Clear,80,2014-01-04 15:55:00
8:55 AM,27.0,19.9,75,30.44,10.0,NW,4.6,-,N/A,,Clear,320,2014-01-04 16:55:00
9:55 AM,28.9,19.9,69,30.45,10.0,West,5.8,-,N/A,,Clear,280,2014-01-04 17:55:00
10:55 AM,32.0,21.0,64,30.45,10.0,SW,3.5,-,N/A,,Clear,230,2014-01-04 18:55:00
11:55 AM,35.1,21.0,57,30.43,10.0,Calm,Calm,-,N/A,,Clear,0,2014-01-04 19:55:00
12:55 PM,37.0,21.0,52,30.41,10.0,WSW,4.6,-,N/A,,Clear,240,2014-01-04 20:55:00
1:55 PM,39.0,18.0,43,30.40,10.0,SW,4.6,-,N/A,,Clear,220,2014-01-04 21:55:00
2:55 PM,41.0,19.0,41,30.39,10.0,NW,3.5,-,N/A,,Clear,310,2014-01-04 22:55:00
3:55 PM,37.9,19.0,47,30.39,10.0,SW,3.5,-,N/A,,Clear,220,2014-01-04 23:55:00
4:55 PM,33.1,19.0,56,30.39,10.0,Calm,Calm,-,N/A,,Clear,0,2014-01-05 00:55:00
5:55 PM,32.0,18.0,56,30.40,10.0,West,3.5,-,N/A,,Clear,270,2014-01-05 01:55:00
6:55 PM,28.9,21.0,72,30.41,10.0,WNW,6.9,-,N/A,,Clear,290,2014-01-05 02:55:00
7:55 PM,30.0,19.0,64,30.42,10.0,NW,4.6,-,N/A,,Clear,310,2014-01-05 03:55:00
8:55 PM,27.0,19.0,72,30.43,10.0,WNW,4.6,-,N/A,,Clear,290,2014-01-05 04:55:00
9:55 PM,28.0,19.0,69,30.43,10.0,WNW,4.6,-,N/A,,Clear,300,2014-01-05 05:55:00
10:55 PM,26.1,19.0,75,30.45,10.0,West,6.9,-,N/A,,Clear,280,2014-01-05 06:55:00
11:55 PM,25.0,19.0,78,30.48,10.0,NNE,3.5,-,N/A,,Clear,30,2014-01-05 07:55:00